Time,TemperatureF,DewpointF,PressureIn,WindDirection,WindDirectionDegrees,WindSpeedMPH,WindSpeedGustMPH,Humidity,HourlyPrecipIn,Conditions,Clouds,dailyrainin,SoftwareType,DateUTC
2013-01-18 00:02:00,4.0,-2.0,30.38,SW,234,0.0,0.0,77,0.00,,,0.00,,2013-01-18 06:02:00,
2013-01-18 00:12:00,4.0,-2.0,30.38,SW,234,0.0,0.0,77,0.00,,,0.00,,2013-01-18 06:12:00,
2013-01-18 00:22:00,4.0,-1.0,30.38,SW,234,0.0,1.0,79,0.00,,,0.00,,2013-01-18 06:22:00,
2013-01-18 00:33:00,4.0,-1.0,30.37,SW,234,0.0,1.0,80,0.00,,,0.00,,2013-01-18 06:33:00,
2013-01-18 00:43:00,4.0,-1.0,30.37,SW,234,0.0,1.0,80,0.00,,,0.00,,2013-01-18 06:43:00,
2013-01-18 00:52:00,4.0,-1.0,30.37,SW,234,0.0,2.0,80,0.00,,,0.00,,2013-01-18 06:52:00,
2013-01-18 01:02:00,5.0,0.0,30.37,SW,234,0.0,0.0,81,0.00,,,0.00,,2013-01-18 07:02:00,
2013-01-18 01:12:00,5.0,0.0,30.37,SW,234,0.0,0.0,81,0.00,,,0.00,,2013-01-18 07:12:00,
2013-01-18 01:22:00,5.0,0.0,30.37,SW,234,0.0,2.0,81,0.00,,,0.00,,2013-01-18 07:22:00,
2013-01-18 01:32:00,6.0,1.0,30.37,WNW,284,0.0,2.0,80,0.00,,,0.00,,2013-01-18 07:32:00,
2013-01-18 01:42:00,6.0,1.0,30.37,WNW,284,0.0,2.0,80,0.00,,,0.00,,2013-01-18 07:42:00,
2013-01-18 01:52:00,7.0,2.0,30.36,SSE,156,0.0,2.0,79,0.00,,,0.00,,2013-01-18 07:52:00,
2013-01-18 02:02:00,7.0,2.0,30.36,SSE,157,0.0,2.0,78,0.00,,,0.00,,2013-01-18 08:02:00,
2013-01-18 02:12:00,7.0,2.0,30.36,SSE,157,0.0,2.0,78,0.00,,,0.00,,2013-01-18 08:12:00,
2013-01-18 02:22:00,7.0,2.0,30.36,SSE,157,0.0,2.0,78,0.00,,,0.00,,2013-01-18 08:22:00,
2013-01-18 02:32:00,8.0,2.0,30.36,SSW,210,1.0,4.0,76,0.00,,,0.00,,2013-01-18 08:32:00,
2013-01-18 02:42:00,8.0,2.0,30.36,SSW,210,1.0,4.0,76,0.00,,,0.00,,2013-01-18 08:42:00,
2013-01-18 02:53:00,9.0,3.0,30.35,SSE,165,2.0,5.0,76,0.00,,,0.00,,2013-01-18 08:53:00,
2013-01-18 03:02:00,9.0,3.0,30.34,South,179,1.0,5.0,76,0.00,,,0.00,,2013-01-18 09:02:00,
2013-01-18 03:12:00,9.0,3.0,30.34,South,179,1.0,5.0,76,0.00,,,0.00,,2013-01-18 09:12:00,
2013-01-18 03:22:00,9.0,3.0,30.34,South,179,1.0,5.0,76,0.00,,,0.00,,2013-01-18 09:22:00,
2013-01-18 03:33:00,9.0,3.0,30.32,South,189,1.0,5.0,76,0.00,,,0.00,,2013-01-18 09:33:00,
2013-01-18 03:42:00,9.0,3.0,30.32,South,189,1.0,5.0,76,0.00,,,0.00,,2013-01-18 09:42:00,
2013-01-18 03:53:00,9.0,3.0,30.32,South,189,1.0,5.0,76,0.00,,,0.00,,2013-01-18 09:53:00,
2013-01-18 04:02:00,10.0,4.0,30.30,SSW,199,0.0,3.0,76,0.00,,,0.00,,2013-01-18 10:02:00,
2013-01-18 04:12:00,10.0,4.0,30.30,SSW,199,0.0,3.0,76,0.00,,,0.00,,2013-01-18 10:12:00,
2013-01-18 04:22:00,10.0,4.0,30.29,ESE,111,0.0,2.0,76,0.00,,,0.00,,2013-01-18 10:22:00,
2013-01-18 04:32:00,10.0,4.0,30.28,SSE,161,0.0,3.0,76,0.00,,,0.00,,2013-01-18 10:32:00,
2013-01-18 04:42:00,10.0,4.0,30.28,SSE,161,0.0,3.0,76,0.00,,,0.00,,2013-01-18 10:42:00,
2013-01-18 04:52:00,10.0,4.0,30.27,SSE,161,0.0,2.0,77,0.00,,,0.00,,2013-01-18 10:52:00,
2013-01-18 05:02:00,10.0,4.0,30.25,SSE,161,0.0,2.0,77,0.00,,,0.00,,2013-01-18 11:02:00,
2013-01-18 05:12:00,10.0,4.0,30.25,SSE,161,0.0,2.0,77,0.00,,,0.00,,2013-01-18 11:12:00,
2013-01-18 05:23:00,10.0,5.0,30.24,South,174,0.0,2.0,78,0.00,,,0.00,,2013-01-18 11:23:00,
2013-01-18 05:32:00,10.0,5.0,30.23,South,182,1.0,3.0,81,0.00,,,0.00,,2013-01-18 11:32:00,
2013-01-18 05:42:00,10.0,5.0,30.23,South,182,1.0,3.0,81,0.00,,,0.00,,2013-01-18 11:42:00,
2013-01-18 05:52:00,10.0,6.0,30.22,SSE,149,1.0,3.0,82,0.00,,,0.00,,2013-01-18 11:52:00,
2013-01-18 06:03:00,10.0,6.0,30.21,East,96,0.0,2.0,84,0.00,,,0.00,,2013-01-18 12:03:00,
2013-01-18 06:12:00,10.0,6.0,30.21,East,96,0.0,2.0,84,0.00,,,0.00,,2013-01-18 12:12:00,
2013-01-18 06:22:00,10.0,6.0,30.21,East,96,0.0,1.0,84,0.00,,,0.00,,2013-01-18 12:22:00,
2013-01-18 06:33:00,10.0,6.0,30.19,SSE,151,0.0,2.0,85,0.00,,,0.00,,2013-01-18 12:33:00,
2013-01-18 06:42:00,10.0,6.0,30.19,SSE,151,0.0,2.0,85,0.00,,,0.00,,2013-01-18 12:42:00,
2013-01-18 06:52:00,11.0,7.0,30.16,SSE,151,0.0,1.0,85,0.00,,,0.00,,2013-01-18 12:52:00,
2013-01-18 07:03:00,11.0,8.0,30.14,SSE,151,0.0,1.0,86,0.00,,,0.00,,2013-01-18 13:03:00,
2013-01-18 07:12:00,11.0,8.0,30.14,SSE,151,0.0,1.0,86,0.00,,,0.00,,2013-01-18 13:12:00,
2013-01-18 07:23:00,11.0,8.0,30.14,SE,127,0.0,2.0,86,0.00,,,0.00,,2013-01-18 13:23:00,
2013-01-18 07:33:00,11.0,8.0,30.11,SE,131,0.0,2.0,87,0.00,,,0.00,,2013-01-18 13:33:00,
2013-01-18 07:43:00,11.0,8.0,30.11,SE,131,0.0,2.0,87,0.00,,,0.00,,2013-01-18 13:43:00,
2013-01-18 07:53:00,11.0,8.0,30.11,SE,131,0.0,2.0,87,0.00,,,0.00,,2013-01-18 13:53:00,
2013-01-18 08:03:00,11.0,8.0,30.09,SE,131,0.0,1.0,87,0.00,,,0.00,,2013-01-18 14:03:00,
2013-01-18 08:12:00,11.0,8.0,30.09,SE,131,0.0,1.0,87,0.00,,,0.00,,2013-01-18 14:12:00,
2013-01-18 08:23:00,11.0,8.0,30.08,SE,131,0.0,1.0,87,0.00,,,0.00,,2013-01-18 14:23:00,
2013-01-18 08:33:00,12.0,9.0,30.07,SE,131,0.0,1.0,88,0.00,,,0.00,,2013-01-18 14:33:00,
2013-01-18 08:42:00,12.0,9.0,30.07,SE,131,0.0,1.0,88,0.00,,,0.00,,2013-01-18 14:42:00,
2013-01-18 08:53:00,12.0,9.0,30.06,SE,131,0.0,2.0,88,0.00,,,0.00,,2013-01-18 14:53:00,
2013-01-18 09:03:00,12.0,9.0,30.06,SE,131,0.0,1.0,88,0.00,,,0.00,,2013-01-18 15:03:00,
2013-01-18 09:12:00,12.0,9.0,30.06,SE,131,0.0,1.0,88,0.00,,,0.00,,2013-01-18 15:12:00,
2013-01-18 09:23:00,13.0,10.0,30.05,SE,131,0.0,1.0,89,0.00,,,0.00,,2013-01-18 15:23:00,
2013-01-18 09:33:00,13.0,10.0,30.04,SE,131,0.0,1.0,89,0.00,,,0.00,,2013-01-18 15:33:00,
2013-01-18 09:43:00,13.0,10.0,30.04,SE,131,0.0,1.0,89,0.00,,,0.00,,2013-01-18 15:43:00,
2013-01-18 09:53:00,13.0,10.0,30.04,SE,131,0.0,1.0,89,0.00,,,0.00,,2013-01-18 15:53:00,
2013-01-18 10:03:00,13.0,10.0,30.04,SE,131,0.0,1.0,89,0.00,,,0.00,,2013-01-18 16:03:00,
2013-01-18 10:12:00,13.0,10.0,30.04,SE,131,0.0,1.0,89,0.00,,,0.00,,2013-01-18 16:12:00,
2013-01-18 10:23:00,15.0,12.0,30.02,NE,51,0.0,2.0,88,0.00,,,0.00,,2013-01-18 16:23:00,
2013-01-18 10:33:00,15.0,12.0,30.01,North,5,0.0,2.0,88,0.00,,,0.00,,2013-01-18 16:33:00,
2013-01-18 10:42:00,15.0,12.0,30.01,North,5,0.0,2.0,88,0.00,,,0.00,,2013-01-18 16:42:00,
2013-01-18 10:52:00,15.0,12.0,30.01,East,100,0.0,3.0,88,0.00,,,0.00,,2013-01-18 16:52:00,
2013-01-18 11:03:00,16.0,13.0,29.99,NE,46,1.0,3.0,87,0.00,,,0.00,,2013-01-18 17:03:00,
2013-01-18 11:13:00,16.0,13.0,29.99,NE,46,1.0,3.0,87,0.00,,,0.00,,2013-01-18 17:13:00,
2013-01-18 11:23:00,16.0,13.0,29.98,SE,127,0.0,2.0,87,0.00,,,0.00,,2013-01-18 17:23:00,
2013-01-18 11:33:00,17.0,14.0,29.97,ENE,57,0.0,2.0,87,0.00,,,0.00,,2013-01-18 17:33:00,
2013-01-18 11:42:00,17.0,14.0,29.97,ENE,57,0.0,2.0,87,0.00,,,0.00,,2013-01-18 17:42:00,
2013-01-18 11:53:00,17.0,14.0,29.96,SSE,162,0.0,2.0,87,0.00,,,0.00,,2013-01-18 17:53:00,
2013-01-18 12:03:00,18.0,15.0,29.94,NE,38,1.0,4.0,87,0.00,,,0.00,,2013-01-18 18:03:00,
2013-01-18 12:13:00,18.0,15.0,29.94,NE,38,1.0,4.0,87,0.00,,,0.00,,2013-01-18 18:13:00,
2013-01-18 12:23:00,18.0,15.0,29.93,ENE,59,1.0,4.0,86,0.00,,,0.00,,2013-01-18 18:23:00,
2013-01-18 12:33:00,18.0,15.0,29.92,NE,49,1.0,3.0,87,0.00,,,0.00,,2013-01-18 18:33:00,
2013-01-18 12:43:00,18.0,15.0,29.92,NE,49,1.0,3.0,87,0.00,,,0.00,,2013-01-18 18:43:00,
2013-01-18 12:52:00,19.0,16.0,29.91,NE,34,0.0,3.0,87,0.00,,,0.00,,2013-01-18 18:52:00,
2013-01-18 13:03:00,19.0,16.0,29.90,NE,54,0.0,3.0,86,0.00,,,0.00,,2013-01-18 19:03:00,
2013-01-18 13:12:00,19.0,16.0,29.90,NE,54,0.0,3.0,86,0.00,,,0.00,,2013-01-18 19:12:00,
2013-01-18 13:23:00,20.0,17.0,29.88,ENE,66,0.0,2.0,87,0.00,,,0.00,,2013-01-18 19:23:00,
2013-01-18 13:33:00,20.0,16.0,29.88,NE,53,1.0,4.0,86,0.00,,,0.00,,2013-01-18 19:33:00,
2013-01-18 13:42:00,20.0,16.0,29.88,NE,53,1.0,4.0,86,0.00,,,0.00,,2013-01-18 19:42:00,
2013-01-18 13:52:00,21.0,17.0,29.88,NE,45,1.0,3.0,85,0.00,,,0.00,,2013-01-18 19:52:00,
2013-01-18 14:03:00,21.0,17.0,29.87,ENE,71,0.0,2.0,85,0.00,,,0.00,,2013-01-18 20:03:00,
2013-01-18 14:12:00,21.0,17.0,29.87,ENE,71,0.0,2.0,85,0.00,,,0.00,,2013-01-18 20:12:00,
2013-01-18 14:23:00,21.0,17.0,29.86,ESE,106,0.0,2.0,84,0.00,,,0.00,,2013-01-18 20:23:00,
2013-01-18 14:33:00,22.0,18.0,29.85,SE,141,0.0,5.0,84,0.00,,,0.00,,2013-01-18 20:33:00,
2013-01-18 14:42:00,22.0,18.0,29.85,SE,141,0.0,5.0,84,0.00,,,0.00,,2013-01-18 20:42:00,
2013-01-18 14:52:00,22.0,18.0,29.84,East,84,0.0,2.0,84,0.00,,,0.00,,2013-01-18 20:52:00,
2013-01-18 15:03:00,22.0,18.0,29.83,NNE,23,0.0,2.0,84,0.00,,,0.00,,2013-01-18 21:03:00,
2013-01-18 15:13:00,22.0,18.0,29.83,NNE,23,0.0,2.0,84,0.00,,,0.00,,2013-01-18 21:13:00,
2013-01-18 15:23:00,22.0,18.0,29.85,NE,36,0.0,2.0,84,0.00,,,0.00,,2013-01-18 21:23:00,
2013-01-18 15:33:00,21.0,17.0,29.85,NE,36,0.0,2.0,84,0.00,,,0.00,,2013-01-18 21:33:00,
2013-01-18 15:42:00,21.0,17.0,29.85,NE,36,0.0,2.0,84,0.00,,,0.00,,2013-01-18 21:42:00,
2013-01-18 15:52:00,21.0,17.0,29.84,NE,36,0.0,2.0,85,0.00,,,0.00,,2013-01-18 21:52:00,
2013-01-18 16:03:00,22.0,18.0,29.85,NE,36,0.0,1.0,85,0.00,,,0.00,,2013-01-18 22:03:00,
2013-01-18 16:12:00,22.0,18.0,29.85,NE,36,0.0,1.0,85,0.00,,,0.00,,2013-01-18 22:12:00,
2013-01-18 16:23:00,21.0,17.0,29.85,NE,36,0.0,2.0,85,0.00,,,0.00,,2013-01-18 22:23:00,
2013-01-18 16:32:00,21.0,17.0,29.85,West,259,0.0,2.0,86,0.00,,,0.00,,2013-01-18 22:32:00,
2013-01-18 16:42:00,21.0,17.0,29.85,West,259,0.0,2.0,86,0.00,,,0.00,,2013-01-18 22:42:00,
2013-01-18 16:53:00,21.0,17.0,29.84,West,259,0.0,1.0,86,0.00,,,0.00,,2013-01-18 22:53:00,
2013-01-18 17:03:00,20.0,16.0,29.82,West,259,0.0,2.0,86,0.00,,,0.00,,2013-01-18 23:03:00,
2013-01-18 17:12:00,20.0,16.0,29.82,West,259,0.0,2.0,86,0.00,,,0.00,,2013-01-18 23:12:00,
2013-01-18 17:22:00,20.0,17.0,29.82,West,259,0.0,1.0,87,0.00,,,0.00,,2013-01-18 23:22:00,
2013-01-18 17:33:00,20.0,17.0,29.81,West,259,0.0,0.0,87,0.00,,,0.00,,2013-01-18 23:33:00,
2013-01-18 17:42:00,20.0,17.0,29.81,West,259,0.0,0.0,87,0.00,,,0.00,,2013-01-18 23:42:00,
2013-01-18 17:53:00,20.0,17.0,29.81,West,259,0.0,0.0,87,0.00,,,0.00,,2013-01-18 23:53:00,
2013-01-18 18:02:00,20.0,17.0,29.82,West,259,0.0,1.0,88,0.00,,,0.00,,2013-01-19 00:02:00,
2013-01-18 18:12:00,20.0,17.0,29.82,West,259,0.0,1.0,88,0.00,,,0.00,,2013-01-19 00:12:00,
2013-01-18 18:22:00,20.0,17.0,29.83,West,259,0.0,2.0,88,0.00,,,0.00,,2013-01-19 00:22:00,
2013-01-18 18:33:00,20.0,17.0,29.84,West,259,0.0,3.0,89,0.00,,,0.00,,2013-01-19 00:33:00,
2013-01-18 18:43:00,20.0,17.0,29.84,West,259,0.0,3.0,89,0.00,,,0.00,,2013-01-19 00:43:00,
2013-01-18 18:53:00,20.0,17.0,29.84,West,259,0.0,1.0,89,0.00,,,0.00,,2013-01-19 00:53:00,
2013-01-18 19:02:00,20.0,17.0,29.85,West,259,0.0,1.0,89,0.00,,,0.00,,2013-01-19 01:02:00,
2013-01-18 19:12:00,20.0,17.0,29.85,West,259,0.0,1.0,89,0.00,,,0.00,,2013-01-19 01:12:00,
2013-01-18 19:22:00,20.0,17.0,29.85,West,259,0.0,2.0,89,0.00,,,0.00,,2013-01-19 01:22:00,
2013-01-18 19:32:00,20.0,17.0,29.85,West,259,0.0,2.0,89,0.00,,,0.00,,2013-01-19 01:32:00,
2013-01-18 19:42:00,20.0,17.0,29.85,West,259,0.0,2.0,89,0.00,,,0.00,,2013-01-19 01:42:00,
2013-01-18 19:53:00,20.0,18.0,29.84,West,259,0.0,2.0,90,0.00,,,0.00,,2013-01-19 01:53:00,
2013-01-18 20:02:00,20.0,18.0,29.85,West,259,0.0,4.0,90,0.00,,,0.00,,2013-01-19 02:02:00,
2013-01-18 20:12:00,20.0,18.0,29.85,West,259,0.0,4.0,90,0.00,,,0.00,,2013-01-19 02:12:00,
2013-01-18 20:22:00,20.0,18.0,29.84,West,259,0.0,0.0,90,0.00,,,0.00,,2013-01-19 02:22:00,
2013-01-18 20:33:00,20.0,18.0,29.84,West,259,0.0,1.0,90,0.00,,,0.00,,2013-01-19 02:33:00,
2013-01-18 20:42:00,20.0,18.0,29.84,West,259,0.0,1.0,90,0.00,,,0.00,,2013-01-19 02:42:00,
2013-01-18 20:53:00,20.0,18.0,29.84,West,259,0.0,0.0,90,0.00,,,0.00,,2013-01-19 02:53:00,
2013-01-18 21:03:00,20.0,18.0,29.85,West,259,0.0,2.0,91,0.00,,,0.00,,2013-01-19 03:03:00,
2013-01-18 21:12:00,20.0,18.0,29.85,West,259,0.0,2.0,91,0.00,,,0.00,,2013-01-19 03:12:00,
2013-01-18 21:22:00,20.0,18.0,29.85,West,259,0.0,2.0,91,0.00,,,0.00,,2013-01-19 03:22:00,
2013-01-18 21:33:00,20.0,18.0,29.85,West,259,0.0,2.0,91,0.00,,,0.00,,2013-01-19 03:33:00,
2013-01-18 21:43:00,20.0,18.0,29.85,West,259,0.0,2.0,91,0.00,,,0.00,,2013-01-19 03:43:00,
2013-01-18 21:53:00,20.0,18.0,29.84,West,259,0.0,3.0,91,0.00,,,0.00,,2013-01-19 03:53:00,
2013-01-18 22:02:00,20.0,18.0,29.84,West,259,0.0,2.0,91,0.00,,,0.00,,2013-01-19 04:02:00,
2013-01-18 22:12:00,20.0,18.0,29.84,West,259,0.0,2.0,91,0.00,,,0.00,,2013-01-19 04:12:00,
2013-01-18 22:22:00,20.0,18.0,29.83,West,259,0.0,2.0,91,0.00,,,0.00,,2013-01-19 04:22:00,
2013-01-18 22:32:00,20.0,18.0,29.82,West,259,0.0,1.0,90,0.00,,,0.00,,2013-01-19 04:32:00,
2013-01-18 22:42:00,20.0,18.0,29.82,West,259,0.0,1.0,90,0.00,,,0.00,,2013-01-19 04:42:00,
2013-01-18 22:53:00,20.0,18.0,29.82,West,259,0.0,0.0,90,0.00,,,0.00,,2013-01-19 04:53:00,
2013-01-18 23:03:00,20.0,18.0,29.82,West,259,0.0,0.0,90,0.00,,,0.00,,2013-01-19 05:03:00,
2013-01-18 23:12:00,20.0,18.0,29.82,West,259,0.0,0.0,90,0.00,,,0.00,,2013-01-19 05:12:00,
2013-01-18 23:23:00,20.0,18.0,29.83,West,259,0.0,1.0,90,0.00,,,0.00,,2013-01-19 05:23:00,
2013-01-18 23:32:00,20.0,18.0,29.83,West,259,0.0,1.0,90,0.00,,,0.00,,2013-01-19 05:32:00,
2013-01-18 23:42:00,20.0,18.0,29.83,West,259,0.0,1.0,90,0.00,,,0.00,,2013-01-19 05:42:00,
2013-01-18 23:53:00,20.0,18.0,29.83,West,259,0.0,1.0,90,0.00,,,0.00,,2013-01-19 05:53:00,